Regional Weather Roundup
Issued by NWS

Home | Current Version | Previous Version | Text Only | Print | Product List | Glossary On
Versions: 1 2 3 4 5 6 7 8 9 10 11 12 13 14 15 16 17 18 19 20 21 22 23 24 25 26 27 28 29 30 31 32 33 34 35 36 37 38 39 40 41 42 43 44 45 46 47 48 49 50
000
ASUS43 KLOT 280512
RWRIL

ILLINOIS REGIONAL WEATHER ROUNDUP
NATIONAL WEATHER SERVICE CHICAGO/ROMEOVILLE IL
1200 AM CDT WED SEP 28 2016

NOTE: "FAIR" INDICATES FEW OR NO CLOUDS BELOW 12,000 FEET WITH NO
SIGNIFICANT WEATHER AND/OR OBSTRUCTIONS TO VISIBILITY.

* THESE STATIONS ARE NOT UNDER NWS QUALITY CONTROL. THEY ALSO MAY NOT
  REPORT WEATHER SUCH AS PRECIPITATION OR FOG.

ILZ001-002-007-009-015-016-024-280600-
NORTHWEST ILLINOIS

CITY           SKY/WX    TMP DP  RH WIND       PRES   REMARKS
MOLINE         CLOUDY    62  40  44 VRB6      29.77S
STERLING*      CLOUDY    55  48  77 NE9       29.80R
SAVANNA*       CLOUDY    53  47  78 NE5       29.81S
$$

ILZ003-004-008-010-011-017-018-280600-
NORTH CENTRAL ILLINOIS

CITY           SKY/WX    TMP DP  RH WIND       PRES   REMARKS
ROCKFORD       CLOUDY    53  45  74 NE10      29.81F
FREEPORT*      CLOUDY    50  46  83 CALM      29.82R
ROCHELLE*      CLOUDY    53  46  79 NE10      29.81R
DE KALB*       CLOUDY    52  47  82 N8        29.82R
$$

ILZ005-006-012>014-019>023-280600-
NORTHEAST ILLINOIS

CITY           SKY/WX    TMP DP  RH WIND       PRES   REMARKS
CHICAGO-OHARE  CLOUDY    54  45  71 NE8       29.78F
CHICAGO-MIDWAY CLOUDY    58  46  64 N12       29.78S
AURORA         CLOUDY    55  47  74 NE7       29.79R
LANSING*       CLOUDY    52  46  78 CALM      29.77S
JOLIET*        PTCLDY    55  47  73 CALM      29.77S
WAUKEGAN       MOCLDY    52  46  80 CALM      29.79F
DUPAGE AIRPORT CLOUDY    54  45  71 NE8       29.78F
KANKAKEE*      CLOUDY    52  45  79 CALM      29.77F
WHEELING       PTCLDY    54  45  71 NE5       29.79F
MORRIS*        CLOUDY    51  46  82 CALM      29.76S
ROMEOVILLE*    PTCLDY    55  49  81 NE7       29.77S
NORTHERLY ISL    N/A     57  47  69 MISG        N/A
$$

LMZ740>746-280600-
SOUTHERN LAKE MICHIGAN

STATION/POSITION SKY/WX   TEMP    WIND        PRES    VSBY  WAVE
                          AIR SEA DIR/SP/G                  HT/PER
                          (F)     (DEG/KT/KT) (MB)    (MI)  (FT/S)
SOUTHERN BUOY              57 70  290/ 14/ 19 1008.0R         2/ 5
WILMETTE HARBOR            56 59   40/  8/ 12   N/A           2/ 2
HARRISON CRIB              58     350/ 15/ 17   N/A
BURNHAM HARBOR             56     340/ 11/ 14   N/A
CALUMET HARBOR             61     350/  8/ 11 1007.9S
BURNS HARBOR               58     170/  3/  8 1008.5F
MICHIGAN CITY              57      60/  7/  7   N/A
MICHIGAN CITY 6N           60 67  100/ 14/ 17   N/A           2/ 3
ST. JOSEPH                 58 67   80/ 12/ 14 1008.5          2/ 5
$$

ILZ025>027-034>036-040-047-049-050-058-095>099-280600-
WEST-CENTRAL ILLINOIS

CITY           SKY/WX    TMP DP  RH WIND       PRES   REMARKS
QUINCY         PTCLDY    58  50  75 SW7       29.80F
GALESBURG*       N/A    N/A N/A N/A MISG        N/A
MACOMB*        CLOUDY    60  48  63 SW7       29.79F
JACKSONVILLE*  MOCLDY    61  49  65 SW7       29.80S
PITTSFIELD*    PTCLDY    62  51  67 CALM      29.82F
$$

ILZ028>032-037-038-041>044-048-051>054-059>061-280600-
CENTRAL ILLINOIS

CITY           SKY/WX    TMP DP  RH WIND       PRES   REMARKS
PONTIAC        CLOUDY    55  46  70 N3        29.77S
BLOOMINGTON    PTCLDY    58  44  60 SW7       29.78F
DECATUR        PTCLDY    59  48  67 SW6       29.79F
PEORIA         CLOUDY    60  45  57 W3        29.76F
LACON*         CLOUDY    56  46  67 CALM      29.75S
LINCOLN*       CLOUDY    61  48  61 SW3       29.77F
SPRINGFIELD    CLOUDY    59  50  72 SW3       29.79F
TAYLORVILLE    PTCLDY    56  51  82 S6        29.80F
$$

ILZ033-039-045-046-055>057-062-063-280600-
EAST-CENTRAL ILLINOIS

CITY           SKY/WX    TMP DP  RH WIND       PRES   REMARKS
CHAMPAIGN      MOCLDY    55  46  71 S6        29.79F
RANTOUL*       PTCLDY    58  47  67 CALM      29.78F
MATTOON        CLOUDY    63  50  62 SW7       29.80F
PARIS*         CLOUDY    59  51  75 SW3       29.81F
$$

ILZ079-100>102-280600-
SOUTHWEST ILLINOIS

CITY           SKY/WX    TMP DP  RH WIND       PRES   REMARKS
BELLEVILLE     CLEAR     62  54  75 SW8       29.82F
CAHOKIA*       CLEAR     65  52  62 SW6       29.83F
SPARTA*        CLEAR     62  53  71 SW5       29.87S
$$

ILZ064>066-069>071-074>076-080>082-084>086-088>090-092>094-280600-
SOUTH-CENTRAL ILLINOIS

CITY           SKY/WX    TMP DP  RH WIND       PRES   REMARKS
CARBONDALE     CLEAR     57  54  89 SW6       29.87F
CAIRO*         CLEAR     65  50  58 SW8       29.90S
EFFINGHAM*     CLOUDY    62  56  80 S5        29.83F
MARION         CLEAR     64  54  68 SW6       29.88F
MT. VERNON     CLEAR     57  48  72 CALM      29.85F
CENTRALIA*     CLEAR     62  55  77 SW7       29.83F
SALEM*         CLEAR     64  53  68 SW7       29.83F
METROPOLIS*    CLEAR     61  52  71 CALM      29.91S
$$

ILZ067-068-072-073-078-083-087-091-280600-
SOUTHEAST ILLINOIS

CITY           SKY/WX    TMP DP  RH WIND       PRES   REMARKS
LAWRENCEVILLE  PTCLDY    60  51  72 SW7       29.83F
FLORA*         CLEAR     57  53  85 SW7       29.84F
FAIRFIELD*     CLEAR     60  53  78 SW3       29.84F
HARRISBURG*    CLEAR     59  54  83 SW3       29.88F
ROBINSON*      CLOUDY    63  52  67 SW9       29.83F
CARMI*         CLEAR     60  54  79 SW7       29.86F
$$

ABBREVIATIONS USED IN REMARKS
   TC - TEMPERATURE IN CELSIUS
  WCI - WIND CHILL INDEX
   HX - HEAT INDEX
  VSB - VISIBILITY
$$





USA.gov is the U.S. government's official web portal to all federal, state and local government web resources and services.